TimeMDT,TemperatureF,Dew PointF,Humidity,Sea Level PressureIn,VisibilityMPH,Wind Direction,Wind SpeedMPH,Gust SpeedMPH,PrecipitationIn,Events,Conditions,WindDirDegrees,DateUTC
12:52 AM,50.0,45.0,83,29.63,10.0,NW,26.5,32.2,N/A,,Mostly Cloudy,320,2013-05-20 06:52:00
1:52 AM,50.0,45.0,83,29.62,10.0,NNW,27.6,40.3,N/A,,Overcast,330,2013-05-20 07:52:00
2:52 AM,50.0,45.0,83,29.60,10.0,NW,33.4,43.7,0.00,,Overcast,320,2013-05-20 08:52:00
3:52 AM,48.2,44.6,87,29.59,10.0,NW,33.4,46.0,N/A,Rain,Light Rain,320,2013-05-20 09:52:00
4:52 AM,48.9,45.0,86,29.57,10.0,NW,38.0,48.3,0.04,Rain,Light Rain,320,2013-05-20 10:52:00
5:52 AM,48.0,45.0,89,29.57,10.0,NNW,36.8,52.9,0.02,Rain,Light Rain,330,2013-05-20 11:52:00
6:52 AM,48.9,45.0,86,29.59,10.0,NNW,40.3,51.8,0.00,,Overcast,330,2013-05-20 12:52:00
7:52 AM,48.9,45.0,86,29.62,4.0,NW,39.1,51.8,0.01,Rain,Light Rain,320,2013-05-20 13:52:00
8:13 AM,48.2,44.6,87,29.63,5.0,NW,39.1,48.3,0.00,Rain,Light Rain,320,2013-05-20 14:13:00
8:52 AM,48.9,46.9,93,29.64,3.0,NNW,41.4,51.8,0.01,Rain,Light Rain,330,2013-05-20 14:52:00
8:59 AM,48.2,46.4,93,29.64,2.5,NNW,38.0,51.8,0.00,Rain,Light Rain,330,2013-05-20 14:59:00
9:06 AM,48.2,46.4,93,29.64,4.0,NNW,41.4,54.1,0.00,Rain,Light Rain,330,2013-05-20 15:06:00
9:52 AM,48.9,46.0,90,29.65,4.0,NNW,40.3,56.4,0.00,Rain,Light Rain,330,2013-05-20 15:52:00
10:52 AM,50.0,46.0,86,29.68,10.0,NNW,38.0,49.5,0.01,Rain,Light Rain,330,2013-05-20 16:52:00
11:10 AM,48.2,46.4,93,29.69,9.0,NNW,32.2,47.2,0.00,Rain,Light Rain,330,2013-05-20 17:10:00
11:19 AM,48.2,46.4,93,29.69,5.0,NNW,40.3,51.8,0.00,Rain,Light Rain,330,2013-05-20 17:19:00
11:52 AM,50.0,46.9,89,29.70,5.0,NNW,36.8,47.2,0.02,Rain,Light Rain,330,2013-05-20 17:52:00
12:52 PM,50.0,46.9,89,29.71,6.0,NNW,35.7,54.1,0.01,Rain,Light Rain,330,2013-05-20 18:52:00
1:52 PM,50.0,46.9,89,29.73,8.0,NNW,34.5,48.3,0.02,Rain,Light Rain,330,2013-05-20 19:52:00
2:34 PM,51.8,48.2,88,29.74,8.0,NNW,35.7,49.5,0.01,Rain,Light Rain,330,2013-05-20 20:34:00
2:52 PM,52.0,48.9,89,29.74,5.0,NNW,33.4,46.0,0.01,Rain,Light Rain,330,2013-05-20 20:52:00
3:12 PM,53.6,48.2,82,29.74,7.0,NNW,34.5,48.3,0.00,Rain,Light Rain,330,2013-05-20 21:12:00
3:20 PM,53.6,48.2,82,29.74,10.0,NNW,38.0,49.5,0.00,,Overcast,330,2013-05-20 21:20:00
3:39 PM,53.6,46.4,77,29.74,10.0,NNW,36.8,50.6,N/A,,Mostly Cloudy,330,2013-05-20 21:39:00
3:52 PM,51.1,46.9,86,29.75,9.0,NNW,32.2,49.5,0.00,Rain,Light Rain,340,2013-05-20 21:52:00
4:01 PM,51.8,46.4,82,29.75,10.0,NNW,38.0,47.2,0.01,,Mostly Cloudy,340,2013-05-20 22:01:00
4:10 PM,51.8,46.4,82,29.75,9.0,NNW,35.7,46.0,0.01,,Overcast,340,2013-05-20 22:10:00
4:52 PM,51.1,46.9,86,29.77,7.0,NNW,31.1,48.3,0.01,Rain,Light Rain,330,2013-05-20 22:52:00
5:52 PM,50.0,46.0,86,29.78,10.0,NNW,33.4,41.4,0.00,,Mostly Cloudy,330,2013-05-20 23:52:00
6:33 PM,48.2,46.4,93,29.78,7.0,NNW,32.2,41.4,N/A,,Mostly Cloudy,340,2013-05-21 00:33:00
6:42 PM,50.0,46.4,87,29.78,10.0,NNW,29.9,40.3,N/A,,Overcast,330,2013-05-21 00:42:00
6:50 PM,48.2,46.4,93,29.78,7.0,NNW,34.5,41.4,0.00,Rain,Light Rain,340,2013-05-21 00:50:00
6:52 PM,48.9,46.0,90,29.79,7.0,NNW,34.5,42.6,0.00,Rain,Light Rain,340,2013-05-21 00:52:00
7:08 PM,50.0,46.4,87,29.79,10.0,NNW,28.8,40.3,0.00,Rain,Light Rain,340,2013-05-21 01:08:00
7:36 PM,48.2,44.6,87,29.80,10.0,NNW,27.6,39.1,0.00,,Overcast,340,2013-05-21 01:36:00
7:52 PM,48.9,45.0,86,29.82,10.0,NNW,27.6,36.8,0.00,Rain,Light Rain,330,2013-05-21 01:52:00
8:10 PM,46.4,44.6,93,29.81,7.0,North,29.9,36.8,0.01,Rain,Light Rain,350,2013-05-21 02:10:00
8:25 PM,46.4,44.6,93,29.82,10.0,NNW,24.2,32.2,0.02,Rain,Light Rain,340,2013-05-21 02:25:00
8:52 PM,46.9,44.1,90,29.83,10.0,NNW,27.6,35.7,0.02,Rain,Light Rain,330,2013-05-21 02:52:00
9:31 PM,46.4,44.6,93,29.83,10.0,NNW,31.1,41.4,0.00,Rain,Light Rain,330,2013-05-21 03:31:00
9:39 PM,46.4,44.6,93,29.84,7.0,NNW,28.8,40.3,0.00,Rain,Light Rain,330,2013-05-21 03:39:00
9:52 PM,46.9,44.1,90,29.85,8.0,NNW,28.8,38.0,0.01,Rain,Light Rain,340,2013-05-21 03:52:00
10:52 PM,46.9,44.1,90,29.86,10.0,NNW,29.9,40.3,0.01,Rain,Light Rain,340,2013-05-21 04:52:00
10:59 PM,46.4,44.6,93,29.84,10.0,NNW,28.8,39.1,0.00,Rain,Light Rain,340,2013-05-21 04:59:00
11:07 PM,46.4,44.6,93,29.84,9.0,NNW,25.3,38.0,0.00,Rain,Light Rain,340,2013-05-21 05:07:00
11:35 PM,46.4,42.8,87,29.85,8.0,NNW,33.4,42.6,0.00,Rain,Light Rain,340,2013-05-21 05:35:00
11:52 PM,46.9,43.0,86,29.85,10.0,NNW,31.1,41.4,0.00,Rain,Light Rain,340,2013-05-21 05:52:00